DW6933 Weather Reports


time (UTC)temp
C
wind
direction
speed
KPH
gust
KPH
rain 1hr
cm
rain 24hr
cm
rain mn
cm
humidity
%
barometer
mb
20260503054616 4 186 0.0 0.0 0.00 0.00 0.00 61 1014.8
20260503053120 4 186 0.0 0.0 0.00 0.00 0.00 61 1015.1
20260503051609 4 188 0.0 0.0 0.00 0.00 0.00 62 1015.1
20260503050119 4 188 0.0 0.0 0.00 0.00 0.00 62 1015.3
20260503044629 5 189 0.0 0.0 0.00 0.00 0.00 57 1015.4
20260503043114 5 189 0.0 0.0 0.00 0.00 0.00 56 1015.4
20260503041606 5 189 0.0 0.0 0.00 0.00 0.00 58 1015.6
20260503040112 5 190 0.0 0.0 0.00 0.00 0.00 58 1015.7
20260503034604 5 193 0.0 0.0 0.00 0.00 0.00 58 1015.9
20260503033112 5 198 0.0 0.0 0.00 0.00 0.00 59 1016.0
20260503031502 5 199 0.0 0.0 0.00 0.00 0.00 58 1016.2
20260503030112 5 220 0.0 0.0 0.00 0.00 0.00 59 1016.3
20260503024621 4 243 0.0 0.0 0.00 0.00 0.00 62 1016.4
20260503023108 5 239 0.0 0.0 0.00 0.00 0.00 60 1016.4
20260503021619 4 236 0.0 0.0 0.00 0.00 0.00 61 1016.4
20260503020116 4 248 0.0 0.0 0.00 0.00 0.00 63 1016.5
20260503014621 5 248 0.0 0.0 0.00 0.00 0.00 64 1016.4
20260503013004 5 248 0.0 0.0 0.00 0.00 0.00 61 1016.3
20260503011612 5 248 0.0 0.0 0.00 0.00 0.00 63 1016.3
20260503010120 6 260 0.0 0.0 0.00 0.00 0.00 60 1016.3
20260503004610 7 282 0.0 0.0 0.00 0.00 0.00 53 1016.4
20260503003117 8 310 0.0 0.0 0.00 0.00 0.00 46 1016.4
20260503001608 10 305 0.0 0.0 0.00 0.00 0.00 46 1016.3
20260503000114 10 307 0.0 0.0 0.00 0.00 0.00 40 1016.3
20260502234619 10 307 0.0 9.7 0.00 0.00 0.00 39 1016.3
20260502233106 10 334 0.0 9.7 0.00 0.00 0.00 38 1016.4
20260502231617 10 331 0.0 11.3 0.00 0.00 0.00 38 1016.5
20260502230120 10 328 1.6 12.9 0.00 0.00 0.00 38 1016.5
20260502224610 10 298 1.6 12.9 0.00 0.00 0.00 36 1016.6
20260502223116 10 336 4.8 9.7 0.00 0.00 0.00 37 1016.6
20260502221608 10 1 3.2 17.7 0.00 0.00 0.00 39 1016.7
20260502220115 10 343 12.9 17.7 0.00 0.00 0.00 34 1016.7
20260502214617 10 343 9.7 20.9 0.00 0.00 0.00 34 1016.8
20260502213123 10 3 9.7 20.9 0.00 0.00 0.00 37 1016.8
20260502211503 10 332 6.4 16.1 0.00 0.00 0.00 41 1016.9
20260502210106 10 331 4.8 14.5 0.00 0.00 0.00 41 1017.0
20260502204617 10 345 0.0 14.5 0.00 0.00 0.00 43 1017.0
20260502203118 10 277 4.8 20.9 0.00 0.00 0.00 41 1017.2
20260502201615 10 355 6.4 29.0 0.00 0.00 0.00 47 1017.4
20260502200121 10 299 6.4 22.5 0.00 0.00 0.00 46 1017.5
20260502194612 10 345 3.2 22.5 0.00 0.00 0.00 48 1017.8
20260502193120 10 267 8.0 27.4 0.00 0.00 0.00 49 1017.9
20260502191612 9 345 3.2 22.5 0.00 0.00 0.00 48 1018.0
20260502190117 8 351 6.4 24.1 0.00 0.00 0.00 47 1018.2
20260502184609 9 313 0.0 27.4 0.00 0.00 0.00 46 1018.3
20260502183116 10 301 4.8 16.1 0.00 0.00 0.00 49 1018.2
20260502181610 8 342 4.8 17.7 0.00 0.00 0.00 48 1018.3
20260502180117 9 356 3.2 17.7 0.00 0.00 0.00 48 1018.5
20260502170108 8 345 0.0 19.3 0.00 0.00 0.00 47 1018.8
20260502163114 7 355 0.0 20.9 0.00 0.00 0.00 49 1018.9
20260502161622 7 346 1.6 11.3 0.00 0.00 0.00 52 1019.1
20260502160114 7 317 1.6 11.3 0.00 0.00 0.00 55 1019.2
20260502151505 7 347 1.6 8.0 0.00 0.00 0.00 55 1019.1
20260502150112 7 351 0.0 6.4 0.00 0.00 0.00 53 1019.1
20260502140108 6 330 0.0 1.6 0.00 0.00 0.00 63 1019.2
20260502123004 2 327 0.0 0.0 0.00 0.00 0.00 85 1019.3
20260502121611 1 318 0.0 0.0 0.00 0.00 0.00 89 1019.3
20260502120121 0 318 0.0 0.0 0.00 0.00 0.00 90 1019.1
20260502114608 0 318 0.0 0.0 0.00 0.00 0.00 88 1019.1
20260502111509 0 318 0.0 0.0 0.00 0.00 0.00 87 1019.0
20260502110115 0 318 0.0 0.0 0.00 0.00 0.00 86 1018.9
20260502104514 0 318 0.0 0.0 0.00 0.00 0.00 85 1018.8
20260502103112 0 318 0.0 0.0 0.00 0.00 0.00 85 1018.7
20260502101618 0 318 0.0 0.0 0.00 0.00 0.00 84 1018.7
20260502100110 0 318 0.0 0.0 0.00 0.00 0.00 84 1018.7
20260502090107 1 318 0.0 0.0 0.00 0.00 0.00 80 1018.4
20260502070117 1 318 0.0 0.0 0.00 0.00 0.00 83 1018.2
20260502064605 1 318 0.0 0.0 0.00 0.00 0.00 83 1018.3